Location: Cactus School
(34.5700°N, 118.0931°W)
Time: 02:50:02
(UTC-08:00)

ISS - Visible Passes

Search period start: 28 February 2024 00:00
Search period end: 09 March 2024 00:00
Orbit: 414 x 422 km, 51.6° (Epoch: 27 February)

Date Brightness Start Highest point End Pass type
(mag) Time Alt. Az. Time Alt. Az. Time Alt. Az.
01 Mar -0.8 05:43:18 10° NNE 05:43:57 10° NNE 05:44:35 10° NE visible
03 Mar -1.5 05:42:24 10° NNW 05:45:05 21° NNE 05:47:45 10° E visible
04 Mar -1.0 04:54:52 10° N 04:56:49 14° NNE 04:58:46 10° ENE visible
05 Mar -0.6 04:08:11 10° NNE 04:08:26 10° NNE 04:08:41 10° NNE visible
05 Mar -3.2 05:42:27 10° NW 05:45:47 60° NE 05:49:06 10° ESE visible
06 Mar -2.2 04:55:07 14° NNW 04:57:34 33° NE 05:00:38 10° ESE visible
07 Mar -1.4 04:09:18 20° NE 04:09:18 20° NE 04:11:50 10° E visible
07 Mar -3.1 05:42:55 10° WNW 05:46:04 36° SW 05:49:11 10° SSE visible
08 Mar -3.9 04:56:34 34° WNW 04:57:52 75° SW 05:01:12 10° SE visible
